DMSP 5D-2 F13 DEB, 40395

Orbit data source: Space-Track

DMSP 5D-2 F13 DEB, 40395 is space debris in SSO originally from a launch on Fri, 24 Mar 1995 UTC launched from the Air Force Western Test Range (AFWTR). Debris objects in space refer to the collection of defunct objects orbiting the Earth. Examples of debris include non-operational satellites, rocket bodies, and fragments generated from explosions, collisions, or faulty payload assembly.

Loading next visibility...
Identifier
40395, 1995-015G
Orbit
SSO
Country
Flag of USUS
Related business
Manufacturer
Unknown
Mission
Spacecraft
Bus & Motor
Unknown
Mass
Unknown
Launch date (UTC)
1995-03-24 (31 years ago)
Launch vehicle
Unknown
Launch site
Air Force Western Test Range (AFWTR)
Object type
Payload
Rocket body
Debris
Shape & HBR
Unknown shape, 0.1 m
Radar Cross Section
Small (<0.1 m²)

Expand to show TLE details & history
Last TLE update: 8 hours ago

TLE from 8 hours ago
0 DMSP 5D-2 F13 DEB
1 40395U 95015G   26121.48640591  .00001090  00000-0  43894-3 0  9991
2 40395  98.5993 145.0429 0023841  53.8498 306.4885 14.29898426581007
Epoch: 2026-05-01T11:40Z
TLE epoch observation values (Epoch: 2026-05-01T11:40:25.470Z)
Latitude
-0.00009°
Longitude
110.51882°
Altitude
784.861 km
Speed
7.467 km/s
True Right ascension
09h 40m 10s
True Declination
0° 00' 00"
Sunlit
Object was in daylight at epoch
Visualization orbit readout
Latitude
Unknown
Longitude
Unknown
Altitude
Unknown
Speed
Unknown
Apparent Right ascension
Unknown
Apparent Declination
Unknown
Sunlit
N/A
Visualization observer readout
Local Sidereal Time
03:44:33
Azimuth
Unknown
Elevation
Unknown
Doppler factor
Unknown
Orbital elements
Apogee altitude
806.298 km
Perigee altitude
772.123 km
Semi-major axis
7,167.347 km
Eccentricity
0.00238
Inclination
98.5993°
RAAN
145.0429°
Arg. of periapsis
53.8498°
True anomaly
306.26847°
Mean anomaly
306.4885°
Eccentric anomaly
306.37852°
Mean motion
3.57689 °/min
Orbital period
100.65 mins
BSTAR
0.00043894
Loading maneuver chart data...
Computing Atmospheric mass density...

Documentation

Showing up to 5 results
|